Time,TemperatureF,DewpointF,PressureIn,WindDirection,WindDirectionDegrees,WindSpeedMPH,WindSpeedGustMPH,Humidity,HourlyPrecipIn,Conditions,Clouds,dailyrainin,SoftwareType,DateUTC
2013-03-26 00:00:00,48.9,25.0,30.27,NNW,331,6.0,16.0,39,0.00,,,0.00,meteohub,2013-03-26 05:00:00,
2013-03-26 00:05:00,48.7,24.8,30.27,NW,305,6.0,16.0,39,0.00,,,0.00,meteohub,2013-03-26 05:05:00,
2013-03-26 00:10:00,48.6,24.8,30.28,NW,323,5.0,13.0,39,0.00,,,0.00,meteohub,2013-03-26 05:10:00,
2013-03-26 00:15:00,48.6,24.8,30.28,NW,313,0.0,11.0,39,0.00,,,0.00,meteohub,2013-03-26 05:15:00,
2013-03-26 00:20:00,48.4,24.6,30.28,NW,318,7.0,12.0,39,0.00,,,0.00,meteohub,2013-03-26 05:20:00,
2013-03-26 00:25:00,48.4,24.6,30.28,NNW,346,3.0,12.0,39,0.00,,,0.00,meteohub,2013-03-26 05:25:00,
2013-03-26 00:30:00,48.2,24.4,30.28,North,0,7.0,12.0,39,0.00,,,0.00,meteohub,2013-03-26 05:30:00,
2013-03-26 00:35:00,48.0,24.8,30.28,NW,313,2.0,11.0,40,0.00,,,0.00,meteohub,2013-03-26 05:35:00,
2013-03-26 00:40:00,47.8,24.6,30.28,NNE,13,4.0,11.0,40,0.00,,,0.00,meteohub,2013-03-26 05:40:00,
2013-03-26 00:45:00,47.8,24.6,30.28,NNW,346,2.0,12.0,40,0.00,,,0.00,meteohub,2013-03-26 05:45:00,
2013-03-26 00:50:00,47.7,25.2,30.28,WNW,294,5.0,12.0,41,0.00,,,0.00,meteohub,2013-03-26 05:50:00,
2013-03-26 00:55:00,47.5,25.0,30.28,NNE,15,2.0,13.0,41,0.00,,,0.00,meteohub,2013-03-26 05:55:00,
2013-03-26 01:00:00,47.5,25.0,30.28,North,1,4.0,13.0,41,0.00,,,0.00,meteohub,2013-03-26 06:00:00,
2013-03-26 01:05:00,47.1,25.2,30.29,NNW,327,5.0,13.0,42,0.00,,,0.00,meteohub,2013-03-26 06:05:00,
2013-03-26 01:10:00,46.9,25.0,30.29,WNW,296,2.0,13.0,42,0.00,,,0.00,meteohub,2013-03-26 06:10:00,
2013-03-26 01:15:00,46.9,25.5,30.29,North,354,2.0,12.0,43,0.00,,,0.00,meteohub,2013-03-26 06:15:00,
2013-03-26 01:20:00,46.8,25.5,30.29,NNW,329,2.0,10.0,43,0.00,,,0.00,meteohub,2013-03-26 06:20:00,
2013-03-26 01:25:00,46.6,25.9,30.29,NNW,333,2.0,10.0,44,0.00,,,0.00,meteohub,2013-03-26 06:25:00,
2013-03-26 01:30:00,46.4,25.7,30.29,NNW,331,3.0,10.0,44,0.00,,,0.00,meteohub,2013-03-26 06:30:00,
2013-03-26 01:36:00,46.2,26.1,30.29,NNW,334,3.0,9.0,45,0.00,,,0.00,meteohub,2013-03-26 06:36:00,
2013-03-26 01:41:00,46.0,25.9,30.30,NNW,343,1.0,9.0,45,0.00,,,0.00,meteohub,2013-03-26 06:41:00,
2013-03-26 01:46:00,45.9,25.7,30.30,NNE,12,2.0,7.0,45,0.00,,,0.00,meteohub,2013-03-26 06:46:00,
2013-03-26 01:51:00,45.9,26.2,30.30,North,352,2.0,8.0,46,0.00,,,0.00,meteohub,2013-03-26 06:51:00,
2013-03-26 01:56:00,45.7,26.1,30.30,NNW,344,7.0,11.0,46,0.00,,,0.00,meteohub,2013-03-26 06:56:00,
2013-03-26 02:01:00,45.7,26.1,30.30,NNW,339,6.0,11.0,46,0.00,,,0.00,meteohub,2013-03-26 07:01:00,
2013-03-26 02:06:00,45.5,25.9,30.30,NNW,345,7.0,12.0,46,0.00,,,0.00,meteohub,2013-03-26 07:06:00,
2013-03-26 02:11:00,45.3,25.2,30.30,NNW,333,7.0,12.0,45,0.00,,,0.00,meteohub,2013-03-26 07:11:00,
2013-03-26 02:16:00,45.3,25.2,30.30,NW,305,5.0,12.0,45,0.00,,,0.00,meteohub,2013-03-26 07:16:00,
2013-03-26 02:21:00,45.1,25.0,30.31,North,359,4.0,10.0,45,0.00,,,0.00,meteohub,2013-03-26 07:21:00,
2013-03-26 02:26:00,45.1,25.0,30.31,WNW,287,5.0,11.0,45,0.00,,,0.00,meteohub,2013-03-26 07:26:00,
2013-03-26 02:31:00,45.0,25.0,30.31,North,3,8.0,13.0,45,0.00,,,0.00,meteohub,2013-03-26 07:31:00,
2013-03-26 02:37:00,45.0,25.0,30.31,North,358,9.0,13.0,45,0.00,,,0.00,meteohub,2013-03-26 07:37:00,
2013-03-26 02:42:00,44.8,25.3,30.31,North,8,8.0,14.0,46,0.00,,,0.00,meteohub,2013-03-26 07:42:00,
2013-03-26 02:47:00,44.6,25.2,30.31,NNW,347,6.0,14.0,46,0.00,,,0.00,meteohub,2013-03-26 07:47:00,
2013-03-26 02:52:00,44.4,25.5,30.31,NNE,20,7.0,15.0,47,0.00,,,0.00,meteohub,2013-03-26 07:52:00,
2013-03-26 02:57:00,44.1,25.2,30.31,NNW,346,4.0,15.0,47,0.00,,,0.00,meteohub,2013-03-26 07:57:00,
2013-03-26 03:02:00,43.9,25.0,30.31,NNW,341,7.0,17.0,47,0.00,,,0.00,meteohub,2013-03-26 08:02:00,
2013-03-26 03:07:00,43.7,25.3,30.32,North,355,5.0,18.0,48,0.00,,,0.00,meteohub,2013-03-26 08:07:00,
2013-03-26 03:12:00,43.5,25.7,30.32,North,6,3.0,18.0,49,0.00,,,0.00,meteohub,2013-03-26 08:12:00,
2013-03-26 03:17:00,43.3,25.5,30.32,NNW,330,3.0,11.0,49,0.00,,,0.00,meteohub,2013-03-26 08:17:00,
2013-03-26 03:22:00,43.3,25.9,30.32,NNW,342,3.0,12.0,50,0.00,,,0.00,meteohub,2013-03-26 08:22:00,
2013-03-26 03:27:00,43.0,26.1,30.32,NNW,340,2.0,12.0,51,0.00,,,0.00,meteohub,2013-03-26 08:27:00,
2013-03-26 03:32:00,42.6,25.7,30.33,NW,323,5.0,12.0,51,0.00,,,0.00,meteohub,2013-03-26 08:32:00,
2013-03-26 03:37:00,42.4,25.2,30.33,North,355,3.0,10.0,50,0.00,,,0.00,meteohub,2013-03-26 08:37:00,
2013-03-26 03:42:00,42.4,25.2,30.33,North,354,7.0,12.0,50,0.00,,,0.00,meteohub,2013-03-26 08:42:00,
2013-03-26 03:47:00,42.3,25.0,30.33,North,7,7.0,12.0,50,0.00,,,0.00,meteohub,2013-03-26 08:47:00,
2013-03-26 03:52:00,42.3,25.3,30.33,North,354,1.0,13.0,51,0.00,,,0.00,meteohub,2013-03-26 08:52:00,
2013-03-26 03:57:00,42.1,25.3,30.33,NNE,15,5.0,13.0,51,0.00,,,0.00,meteohub,2013-03-26 08:57:00,
2013-03-26 04:02:00,41.7,25.3,30.33,NNE,14,6.0,13.0,52,0.00,,,0.00,meteohub,2013-03-26 09:02:00,
2013-03-26 04:07:00,41.5,25.2,30.33,NNW,327,4.0,13.0,52,0.00,,,0.00,meteohub,2013-03-26 09:07:00,
2013-03-26 04:12:00,41.4,25.0,30.33,NNW,327,9.0,13.0,52,0.00,,,0.00,meteohub,2013-03-26 09:12:00,
2013-03-26 04:17:00,41.4,25.5,30.33,NW,313,5.0,13.0,53,0.00,,,0.00,meteohub,2013-03-26 09:17:00,
2013-03-26 04:22:00,41.2,25.3,30.34,NNW,333,9.0,11.0,53,0.00,,,0.00,meteohub,2013-03-26 09:22:00,
2013-03-26 04:27:00,41.0,25.7,30.33,NW,313,8.0,11.0,54,0.00,,,0.00,meteohub,2013-03-26 09:27:00,
2013-03-26 04:32:00,40.8,25.5,30.34,NNE,17,8.0,11.0,54,0.00,,,0.00,meteohub,2013-03-26 09:32:00,
2013-03-26 04:37:00,40.8,25.0,30.34,NNE,13,3.0,11.0,53,0.00,,,0.00,meteohub,2013-03-26 09:37:00,
2013-03-26 04:42:00,40.8,25.5,30.34,NNE,26,7.0,11.0,54,0.00,,,0.00,meteohub,2013-03-26 09:42:00,
2013-03-26 04:47:00,40.6,25.3,30.34,NW,318,3.0,11.0,54,0.00,,,0.00,meteohub,2013-03-26 09:47:00,
2013-03-26 04:52:00,40.5,25.5,30.34,North,358,3.0,11.0,55,0.00,,,0.00,meteohub,2013-03-26 09:52:00,
2013-03-26 04:57:00,40.5,25.5,30.34,North,11,6.0,12.0,55,0.00,,,0.00,meteohub,2013-03-26 09:57:00,
2013-03-26 05:02:00,40.3,25.3,30.34,North,350,6.0,12.0,55,0.00,,,0.00,meteohub,2013-03-26 10:02:00,
2013-03-26 05:07:00,40.3,25.3,30.34,NE,34,3.0,12.0,55,0.00,,,0.00,meteohub,2013-03-26 10:07:00,
2013-03-26 05:12:00,40.1,25.7,30.34,North,356,4.0,11.0,56,0.00,,,0.00,meteohub,2013-03-26 10:12:00,
2013-03-26 05:17:00,39.9,25.5,30.34,NNE,31,1.0,10.0,56,0.00,,,0.00,meteohub,2013-03-26 10:17:00,
2013-03-26 05:22:00,39.9,25.9,30.34,NE,37,2.0,10.0,57,0.00,,,0.00,meteohub,2013-03-26 10:22:00,
2013-03-26 05:27:00,39.7,25.7,30.34,NNE,13,5.0,9.0,57,0.00,,,0.00,meteohub,2013-03-26 10:27:00,
2013-03-26 05:32:00,39.7,25.3,30.34,NNW,333,6.0,9.0,56,0.00,,,0.00,meteohub,2013-03-26 10:32:00,
2013-03-26 05:37:00,39.7,25.3,30.34,North,10,4.0,11.0,56,0.00,,,0.00,meteohub,2013-03-26 10:37:00,
2013-03-26 05:42:00,39.6,25.2,30.35,North,5,5.0,11.0,56,0.00,,,0.00,meteohub,2013-03-26 10:42:00,
2013-03-26 05:48:00,39.6,25.2,30.35,North,4,2.0,10.0,56,0.00,,,0.00,meteohub,2013-03-26 10:48:00,
2013-03-26 05:53:00,39.6,25.2,30.35,North,354,7.0,10.0,56,0.00,,,0.00,meteohub,2013-03-26 10:53:00,
2013-03-26 05:57:00,39.4,25.3,30.35,NNE,32,1.0,10.0,57,0.00,,,0.00,meteohub,2013-03-26 10:57:00,
2013-03-26 06:03:00,39.2,25.2,30.35,NNW,335,2.0,10.0,57,0.00,,,0.00,meteohub,2013-03-26 11:03:00,
2013-03-26 06:08:00,39.0,25.5,30.35,NNW,334,2.0,10.0,58,0.00,,,0.00,meteohub,2013-03-26 11:08:00,
2013-03-26 06:13:00,38.8,25.7,30.35,NNW,338,3.0,7.0,59,0.00,,,0.00,meteohub,2013-03-26 11:13:00,
2013-03-26 06:18:00,38.7,25.5,30.35,North,3,7.0,7.0,59,0.00,,,0.00,meteohub,2013-03-26 11:18:00,
2013-03-26 06:23:00,38.7,25.5,30.35,North,354,2.0,7.0,59,0.00,,,0.00,meteohub,2013-03-26 11:23:00,
2013-03-26 06:28:00,38.7,25.5,30.35,NNW,337,6.0,7.0,59,0.00,,,0.00,meteohub,2013-03-26 11:28:00,
2013-03-26 06:33:00,38.7,25.5,30.36,North,352,3.0,8.0,59,0.00,,,0.00,meteohub,2013-03-26 11:33:00,
2013-03-26 06:38:00,38.5,25.9,30.36,North,351,2.0,8.0,60,0.00,,,0.00,meteohub,2013-03-26 11:38:00,
2013-03-26 06:43:00,38.3,25.7,30.36,North,351,0.0,8.0,60,0.00,,,0.00,meteohub,2013-03-26 11:43:00,
2013-03-26 06:48:00,38.1,25.9,30.36,North,351,1.0,6.0,61,0.00,,,0.00,meteohub,2013-03-26 11:48:00,
2013-03-26 06:53:00,38.1,26.2,30.36,NNW,344,5.0,5.0,62,0.00,,,0.00,meteohub,2013-03-26 11:53:00,
2013-03-26 06:58:00,37.9,26.1,30.37,North,350,4.0,5.0,62,0.00,,,0.00,meteohub,2013-03-26 11:58:00,
2013-03-26 07:03:00,37.9,26.1,30.37,WNW,303,4.0,6.0,62,0.00,,,0.00,meteohub,2013-03-26 12:03:00,
2013-03-26 07:08:00,37.9,26.1,30.37,NW,306,1.0,7.0,62,0.00,,,0.00,meteohub,2013-03-26 12:08:00,
2013-03-26 07:13:00,37.9,26.4,30.37,NW,306,4.0,7.0,63,0.00,,,0.00,meteohub,2013-03-26 12:13:00,
2013-03-26 07:18:00,37.9,26.4,30.37,NW,306,5.0,7.0,63,0.00,,,0.00,meteohub,2013-03-26 12:18:00,
2013-03-26 07:23:00,38.1,26.6,30.37,NW,306,4.0,6.0,63,0.00,,,0.00,meteohub,2013-03-26 12:23:00,
2013-03-26 07:28:00,38.3,26.8,30.37,NW,318,3.0,6.0,63,0.00,,,0.00,meteohub,2013-03-26 12:28:00,
2013-03-26 07:33:00,38.5,27.0,30.38,NW,313,4.0,6.0,63,0.00,,,0.00,meteohub,2013-03-26 12:33:00,
2013-03-26 07:38:00,38.7,27.1,30.38,NW,308,0.0,6.0,63,0.00,,,0.00,meteohub,2013-03-26 12:38:00,
2013-03-26 07:43:00,39.0,27.5,30.38,NW,306,4.0,6.0,63,0.00,,,0.00,meteohub,2013-03-26 12:43:00,
2013-03-26 07:48:00,39.2,27.3,30.38,NW,306,7.0,7.0,62,0.00,,,0.00,meteohub,2013-03-26 12:48:00,
2013-03-26 07:53:00,39.4,27.5,30.38,WNW,296,2.0,8.0,62,0.00,,,0.00,meteohub,2013-03-26 12:53:00,
2013-03-26 07:58:00,39.6,27.7,30.38,WNW,297,0.0,8.0,62,0.00,,,0.00,meteohub,2013-03-26 12:58:00,
2013-03-26 08:03:00,39.6,27.7,30.39,WNW,297,5.0,8.0,62,0.00,,,0.00,meteohub,2013-03-26 13:03:00,
2013-03-26 08:08:00,39.6,27.7,30.39,WNW,296,4.0,7.0,62,0.00,,,0.00,meteohub,2013-03-26 13:08:00,
2013-03-26 08:13:00,39.6,28.0,30.39,WNW,300,4.0,7.0,63,0.00,,,0.00,meteohub,2013-03-26 13:13:00,
2013-03-26 08:18:00,39.7,27.9,30.39,WNW,288,4.0,7.0,62,0.00,,,0.00,meteohub,2013-03-26 13:18:00,
2013-03-26 08:23:00,39.7,27.0,30.40,West,271,6.0,7.0,60,0.00,,,0.00,meteohub,2013-03-26 13:23:00,
2013-03-26 08:28:00,39.9,27.1,30.40,WNW,282,7.0,8.0,60,0.00,,,0.00,meteohub,2013-03-26 13:28:00,
2013-03-26 08:33:00,40.1,27.0,30.40,NW,323,3.0,8.0,59,0.00,,,0.00,meteohub,2013-03-26 13:33:00,
2013-03-26 08:38:00,40.5,26.8,30.40,WNW,293,4.0,9.0,58,0.00,,,0.00,meteohub,2013-03-26 13:38:00,
2013-03-26 08:43:00,40.8,26.8,30.40,NNW,329,6.0,9.0,57,0.00,,,0.00,meteohub,2013-03-26 13:43:00,
2013-03-26 08:48:00,41.2,26.6,30.40,WNW,297,4.0,8.0,56,0.00,,,0.00,meteohub,2013-03-26 13:48:00,
2013-03-26 08:53:00,41.5,25.7,30.40,North,350,7.0,9.0,53,0.00,,,0.00,meteohub,2013-03-26 13:53:00,
2013-03-26 08:58:00,41.5,24.8,30.41,North,7,3.0,13.0,51,0.00,,,0.00,meteohub,2013-03-26 13:58:00,
2013-03-26 09:03:00,41.5,24.8,30.41,NNW,336,8.0,13.0,51,0.00,,,0.00,meteohub,2013-03-26 14:03:00,
2013-03-26 09:08:00,41.5,23.7,30.41,NNW,335,5.0,13.0,49,0.00,,,0.00,meteohub,2013-03-26 14:08:00,
2013-03-26 09:13:00,41.7,24.4,30.41,NNW,346,3.0,11.0,50,0.00,,,0.00,meteohub,2013-03-26 14:13:00,
2013-03-26 09:18:00,41.9,24.6,30.41,WNW,300,5.0,11.0,50,0.00,,,0.00,meteohub,2013-03-26 14:18:00,
2013-03-26 09:23:00,42.3,25.0,30.41,NNW,342,0.0,14.0,50,0.00,,,0.00,meteohub,2013-03-26 14:23:00,
2013-03-26 09:28:00,42.3,24.4,30.41,NNW,337,14.0,14.0,49,0.00,,,0.00,meteohub,2013-03-26 14:28:00,
2013-03-26 09:33:00,42.1,23.7,30.41,NW,318,7.0,14.0,48,0.00,,,0.00,meteohub,2013-03-26 14:33:00,
2013-03-26 09:38:00,42.1,23.4,30.41,WNW,294,6.0,14.0,47,0.00,,,0.00,meteohub,2013-03-26 14:38:00,
2013-03-26 09:43:00,42.1,23.4,30.41,NNW,331,11.0,14.0,47,0.00,,,0.00,meteohub,2013-03-26 14:43:00,
2013-03-26 09:48:00,42.3,23.5,30.41,NNE,17,6.0,15.0,47,0.00,,,0.00,meteohub,2013-03-26 14:48:00,
2013-03-26 09:53:00,42.4,23.2,30.42,NNW,337,6.0,15.0,46,0.00,,,0.00,meteohub,2013-03-26 14:53:00,
2013-03-26 09:58:00,43.0,23.5,30.41,WNW,299,15.0,15.0,46,0.00,,,0.00,meteohub,2013-03-26 14:58:00,
2013-03-26 10:03:00,43.0,23.2,30.42,NNW,330,3.0,15.0,45,0.00,,,0.00,meteohub,2013-03-26 15:03:00,
2013-03-26 10:08:00,42.6,23.4,30.42,North,358,6.0,17.0,46,0.00,,,0.00,meteohub,2013-03-26 15:08:00,
2013-03-26 10:13:00,42.8,23.4,30.41,WNW,298,11.0,17.0,46,0.00,,,0.00,meteohub,2013-03-26 15:13:00,
2013-03-26 10:18:00,43.2,23.7,30.41,NW,323,9.0,16.0,46,0.00,,,0.00,meteohub,2013-03-26 15:18:00,
2013-03-26 10:23:00,43.2,23.7,30.41,North,356,2.0,15.0,46,0.00,,,0.00,meteohub,2013-03-26 15:23:00,
2013-03-26 10:28:00,43.5,23.5,30.41,WNW,296,11.0,19.0,45,0.00,,,0.00,meteohub,2013-03-26 15:28:00,
2013-03-26 10:33:00,43.3,23.4,30.41,NW,313,6.0,19.0,45,0.00,,,0.00,meteohub,2013-03-26 15:33:00,
2013-03-26 10:38:00,43.5,23.5,30.41,WSW,248,7.0,19.0,45,0.00,,,0.00,meteohub,2013-03-26 15:38:00,
2013-03-26 10:43:00,43.7,23.7,30.41,NNW,340,7.0,17.0,45,0.00,,,0.00,meteohub,2013-03-26 15:43:00,
2013-03-26 10:49:00,43.5,23.5,30.41,WNW,296,13.0,21.0,45,0.00,,,0.00,meteohub,2013-03-26 15:49:00,
2013-03-26 10:54:00,43.9,23.4,30.41,WNW,288,12.0,21.0,44,0.00,,,0.00,meteohub,2013-03-26 15:54:00,
2013-03-26 10:59:00,43.9,22.8,30.41,NW,305,12.0,21.0,43,0.00,,,0.00,meteohub,2013-03-26 15:59:00,
2013-03-26 11:04:00,44.2,23.7,30.41,NW,313,10.0,19.0,44,0.00,,,0.00,meteohub,2013-03-26 16:04:00,
2013-03-26 11:09:00,44.2,23.7,30.41,West,280,12.0,19.0,44,0.00,,,0.00,meteohub,2013-03-26 16:09:00,
2013-03-26 11:14:00,44.4,23.4,30.41,NNW,346,7.0,19.0,43,0.00,,,0.00,meteohub,2013-03-26 16:14:00,
2013-03-26 11:19:00,44.4,24.4,30.41,NW,318,9.0,15.0,45,0.00,,,0.00,meteohub,2013-03-26 16:19:00,
2013-03-26 11:24:00,44.8,24.3,30.41,WNW,282,5.0,16.0,44,0.00,,,0.00,meteohub,2013-03-26 16:24:00,
2013-03-26 11:29:00,44.8,24.3,30.41,North,350,2.0,16.0,44,0.00,,,0.00,meteohub,2013-03-26 16:29:00,
2013-03-26 11:34:00,45.1,24.4,30.41,North,350,5.0,16.0,44,0.00,,,0.00,meteohub,2013-03-26 16:34:00,
2013-03-26 11:39:00,45.1,24.4,30.41,NNW,340,6.0,12.0,44,0.00,,,0.00,meteohub,2013-03-26 16:39:00,
2013-03-26 11:44:00,45.0,25.3,30.41,North,0,5.0,16.0,46,0.00,,,0.00,meteohub,2013-03-26 16:44:00,
2013-03-26 11:49:00,45.3,25.2,30.40,WNW,298,12.0,16.0,45,0.00,,,0.00,meteohub,2013-03-26 16:49:00,
2013-03-26 11:54:00,45.3,25.2,30.40,WNW,298,9.0,16.0,45,0.00,,,0.00,meteohub,2013-03-26 16:54:00,
2013-03-26 11:59:00,45.5,25.3,30.40,North,355,6.0,14.0,45,0.00,,,0.00,meteohub,2013-03-26 16:59:00,
2013-03-26 12:04:00,45.7,25.5,30.40,WNW,303,11.0,14.0,45,0.00,,,0.00,meteohub,2013-03-26 17:04:00,
2013-03-26 12:09:00,46.0,25.3,30.40,NW,318,11.0,17.0,44,0.00,,,0.00,meteohub,2013-03-26 17:09:00,
2013-03-26 12:14:00,46.2,26.6,30.40,ENE,62,5.0,17.0,46,0.00,,,0.00,meteohub,2013-03-26 17:14:00,
2013-03-26 12:19:00,46.2,25.0,30.40,West,277,10.0,17.0,43,0.00,,,0.00,meteohub,2013-03-26 17:19:00,
2013-03-26 12:24:00,46.8,24.8,30.40,WNW,293,12.0,16.0,42,0.00,,,0.00,meteohub,2013-03-26 17:24:00,
2013-03-26 12:29:00,46.8,24.8,30.39,West,278,2.0,19.0,42,0.00,,,0.00,meteohub,2013-03-26 17:29:00,
2013-03-26 12:34:00,47.1,24.1,30.39,West,281,10.0,19.0,40,0.00,,,0.00,meteohub,2013-03-26 17:34:00,
2013-03-26 12:39:00,46.9,24.4,30.39,West,269,8.0,19.0,41,0.00,,,0.00,meteohub,2013-03-26 17:39:00,
2013-03-26 12:44:00,46.8,24.8,30.39,NW,318,13.0,18.0,42,0.00,,,0.00,meteohub,2013-03-26 17:44:00,
2013-03-26 12:49:00,47.5,25.5,30.39,West,263,8.0,18.0,42,0.00,,,0.00,meteohub,2013-03-26 17:49:00,
2013-03-26 12:54:00,47.8,25.3,30.38,NW,305,10.0,18.0,41,0.00,,,0.00,meteohub,2013-03-26 17:54:00,
2013-03-26 12:59:00,48.6,25.9,30.38,NNW,348,8.0,17.0,41,0.00,,,0.00,meteohub,2013-03-26 17:59:00,
2013-03-26 13:04:00,48.6,24.8,30.38,WNW,285,11.0,15.0,39,0.00,,,0.00,meteohub,2013-03-26 18:04:00,
2013-03-26 13:09:00,48.2,25.0,30.38,NE,44,5.0,16.0,40,0.00,,,0.00,meteohub,2013-03-26 18:09:00,
2013-03-26 13:14:00,48.4,25.2,30.38,WNW,300,12.0,18.0,40,0.00,,,0.00,meteohub,2013-03-26 18:14:00,
2013-03-26 13:19:00,48.0,24.8,30.38,WNW,298,18.0,18.0,40,0.00,,,0.00,meteohub,2013-03-26 18:19:00,
2013-03-26 13:24:00,48.2,25.5,30.37,WNW,295,14.0,16.0,41,0.00,,,0.00,meteohub,2013-03-26 18:24:00,
2013-03-26 13:29:00,48.4,24.6,30.38,WNW,298,10.0,20.0,39,0.00,,,0.00,meteohub,2013-03-26 18:29:00,
2013-03-26 13:34:00,48.6,25.3,30.37,NW,305,8.0,20.0,40,0.00,,,0.00,meteohub,2013-03-26 18:34:00,
2013-03-26 13:39:00,48.7,24.8,30.37,North,6,8.0,19.0,39,0.00,,,0.00,meteohub,2013-03-26 18:39:00,
2013-03-26 13:44:00,48.7,24.8,30.37,North,349,9.0,19.0,39,0.00,,,0.00,meteohub,2013-03-26 18:44:00,
2013-03-26 13:49:00,49.3,25.3,30.37,North,357,10.0,19.0,39,0.00,,,0.00,meteohub,2013-03-26 18:49:00,
2013-03-26 13:54:00,49.3,25.3,30.36,NE,46,7.0,19.0,39,0.00,,,0.00,meteohub,2013-03-26 18:54:00,
2013-03-26 13:59:00,49.5,25.0,30.36,NNW,327,8.0,15.0,38,0.00,,,0.00,meteohub,2013-03-26 18:59:00,
2013-03-26 14:04:00,49.8,25.9,30.36,NW,307,13.0,17.0,39,0.00,,,0.00,meteohub,2013-03-26 19:04:00,
2013-03-26 14:09:00,49.5,25.5,30.36,NW,323,8.0,20.0,39,0.00,,,0.00,meteohub,2013-03-26 19:09:00,
2013-03-26 14:14:00,49.6,25.0,30.35,NW,307,6.0,20.0,38,0.00,,,0.00,meteohub,2013-03-26 19:14:00,
2013-03-26 14:20:00,49.6,25.0,30.35,NW,313,10.0,20.0,38,0.00,,,0.00,meteohub,2013-03-26 19:20:00,
2013-03-26 14:25:00,50.0,26.1,30.35,North,354,9.0,17.0,39,0.00,,,0.00,meteohub,2013-03-26 19:25:00,
2013-03-26 14:30:00,50.2,26.2,30.35,NW,313,12.0,24.0,39,0.00,,,0.00,meteohub,2013-03-26 19:30:00,
2013-03-26 14:34:00,50.7,26.1,30.35,NW,323,10.0,24.0,38,0.00,,,0.00,meteohub,2013-03-26 19:34:00,
2013-03-26 14:40:00,50.5,25.2,30.35,North,11,8.0,17.0,37,0.00,,,0.00,meteohub,2013-03-26 19:40:00,
2013-03-26 14:45:00,50.4,25.0,30.34,West,262,6.0,18.0,37,0.00,,,0.00,meteohub,2013-03-26 19:45:00,
2013-03-26 14:50:00,50.2,25.0,30.35,NW,323,11.0,22.0,37,0.00,,,0.00,meteohub,2013-03-26 19:50:00,
2013-03-26 14:55:00,50.2,25.0,30.34,WNW,283,11.0,22.0,37,0.00,,,0.00,meteohub,2013-03-26 19:55:00,
2013-03-26 15:00:00,50.5,25.2,30.34,NW,308,6.0,22.0,37,0.00,,,0.00,meteohub,2013-03-26 20:00:00,
2013-03-26 15:05:00,50.5,25.9,30.33,WNW,292,7.0,19.0,38,0.00,,,0.00,meteohub,2013-03-26 20:05:00,
2013-03-26 15:10:00,51.1,25.7,30.33,WNW,289,14.0,19.0,37,0.00,,,0.00,meteohub,2013-03-26 20:10:00,
2013-03-26 15:15:00,50.7,26.1,30.33,WNW,292,6.0,23.0,38,0.00,,,0.00,meteohub,2013-03-26 20:15:00,
2013-03-26 15:20:00,51.3,25.9,30.32,WNW,293,12.0,23.0,37,0.00,,,0.00,meteohub,2013-03-26 20:20:00,
2013-03-26 15:25:00,51.4,26.1,30.33,North,352,10.0,23.0,37,0.00,,,0.00,meteohub,2013-03-26 20:25:00,
2013-03-26 15:30:00,51.8,27.0,30.32,NNW,331,8.0,21.0,38,0.00,,,0.00,meteohub,2013-03-26 20:30:00,
2013-03-26 15:35:00,52.2,26.6,30.32,NNW,348,8.0,21.0,37,0.00,,,0.00,meteohub,2013-03-26 20:35:00,
2013-03-26 15:40:00,52.3,26.8,30.32,North,354,9.0,21.0,37,0.00,,,0.00,meteohub,2013-03-26 20:40:00,
2013-03-26 15:45:00,51.6,25.5,30.32,NW,313,9.0,17.0,36,0.00,,,0.00,meteohub,2013-03-26 20:45:00,
2013-03-26 15:50:00,51.4,26.1,30.32,NNW,329,10.0,19.0,37,0.00,,,0.00,meteohub,2013-03-26 20:50:00,
2013-03-26 15:55:00,51.6,26.2,30.32,NW,318,11.0,19.0,37,0.00,,,0.00,meteohub,2013-03-26 20:55:00,
2013-03-26 16:00:00,52.0,27.1,30.32,West,273,6.0,19.0,38,0.00,,,0.00,meteohub,2013-03-26 21:00:00,
2013-03-26 16:05:00,52.3,26.2,30.31,NW,313,11.0,17.0,36,0.00,,,0.00,meteohub,2013-03-26 21:05:00,
2013-03-26 16:10:00,52.2,26.6,30.31,NNW,341,10.0,20.0,37,0.00,,,0.00,meteohub,2013-03-26 21:10:00,
2013-03-26 16:15:00,52.2,27.3,30.31,West,273,10.0,20.0,38,0.00,,,0.00,meteohub,2013-03-26 21:15:00,
2013-03-26 16:20:00,52.2,26.1,30.31,NW,309,12.0,18.0,36,0.00,,,0.00,meteohub,2013-03-26 21:20:00,
2013-03-26 16:25:00,52.2,26.1,30.31,NW,323,5.0,18.0,36,0.00,,,0.00,meteohub,2013-03-26 21:25:00,
2013-03-26 16:30:00,52.2,26.6,30.31,NNW,331,2.0,18.0,37,0.00,,,0.00,meteohub,2013-03-26 21:30:00,
2013-03-26 16:35:00,52.9,26.6,30.31,NW,313,14.0,17.0,36,0.00,,,0.00,meteohub,2013-03-26 21:35:00,
2013-03-26 16:40:00,52.9,26.6,30.31,NNW,335,10.0,15.0,36,0.00,,,0.00,meteohub,2013-03-26 21:40:00,
2013-03-26 16:45:00,52.5,26.2,30.31,NW,323,20.0,20.0,36,0.00,,,0.00,meteohub,2013-03-26 21:45:00,
2013-03-26 16:50:00,52.5,26.2,30.31,WNW,289,14.0,20.0,36,0.00,,,0.00,meteohub,2013-03-26 21:50:00,
2013-03-26 16:55:00,52.5,27.0,30.31,West,273,6.0,22.0,37,0.00,,,0.00,meteohub,2013-03-26 21:55:00,
2013-03-26 17:00:00,52.7,27.1,30.30,WNW,288,9.0,22.0,37,0.00,,,0.00,meteohub,2013-03-26 22:00:00,
2013-03-26 17:05:00,53.2,27.7,30.30,NW,305,14.0,22.0,37,0.00,,,0.00,meteohub,2013-03-26 22:05:00,
2013-03-26 17:10:00,53.2,27.0,30.31,North,358,5.0,20.0,36,0.00,,,0.00,meteohub,2013-03-26 22:10:00,
2013-03-26 17:15:00,53.4,27.1,30.30,WNW,287,10.0,20.0,36,0.00,,,0.00,meteohub,2013-03-26 22:15:00,
2013-03-26 17:20:00,53.1,26.8,30.31,WNW,299,12.0,19.0,36,0.00,,,0.00,meteohub,2013-03-26 22:20:00,
2013-03-26 17:25:00,53.2,27.0,30.31,NNE,21,8.0,18.0,36,0.00,,,0.00,meteohub,2013-03-26 22:25:00,
2013-03-26 17:30:00,53.1,26.8,30.31,West,266,5.0,18.0,36,0.00,,,0.00,meteohub,2013-03-26 22:30:00,
2013-03-26 17:35:00,53.2,27.0,30.31,WNW,288,12.0,14.0,36,0.00,,,0.00,meteohub,2013-03-26 22:35:00,
2013-03-26 17:40:00,53.1,26.8,30.31,WSW,248,7.0,15.0,36,0.00,,,0.00,meteohub,2013-03-26 22:40:00,
2013-03-26 17:45:00,53.2,27.0,30.31,North,4,8.0,15.0,36,0.00,,,0.00,meteohub,2013-03-26 22:45:00,
2013-03-26 17:50:00,53.1,26.8,30.31,NNW,337,9.0,17.0,36,0.00,,,0.00,meteohub,2013-03-26 22:50:00,
2013-03-26 17:55:00,53.1,26.8,30.31,NNE,24,6.0,17.0,36,0.00,,,0.00,meteohub,2013-03-26 22:55:00,
2013-03-26 18:00:00,53.1,26.8,30.31,WNW,302,7.0,14.0,36,0.00,,,0.00,meteohub,2013-03-26 23:00:00,
2013-03-26 18:05:00,53.2,27.0,30.31,NW,313,4.0,13.0,36,0.00,,,0.00,meteohub,2013-03-26 23:05:00,
2013-03-26 18:10:00,53.1,26.8,30.31,NW,306,10.0,13.0,36,0.00,,,0.00,meteohub,2013-03-26 23:10:00,
2013-03-26 18:15:00,53.1,26.8,30.31,West,272,8.0,16.0,36,0.00,,,0.00,meteohub,2013-03-26 23:15:00,
2013-03-26 18:20:00,53.1,26.8,30.31,NW,313,7.0,16.0,36,0.00,,,0.00,meteohub,2013-03-26 23:20:00,
2013-03-26 18:25:00,53.1,26.8,30.31,West,275,6.0,18.0,36,0.00,,,0.00,meteohub,2013-03-26 23:25:00,
2013-03-26 18:30:00,53.1,26.8,30.31,NW,313,8.0,18.0,36,0.00,,,0.00,meteohub,2013-03-26 23:30:00,
2013-03-26 18:35:00,52.9,26.6,30.31,NW,305,4.0,18.0,36,0.00,,,0.00,meteohub,2013-03-26 23:35:00,
2013-03-26 18:40:00,52.9,26.6,30.31,NW,323,7.0,15.0,36,0.00,,,0.00,meteohub,2013-03-26 23:40:00,
2013-03-26 18:45:00,52.5,27.0,30.31,NNW,337,5.0,14.0,37,0.00,,,0.00,meteohub,2013-03-26 23:45:00,
2013-03-26 18:50:00,52.5,27.0,30.31,NW,305,6.0,12.0,37,0.00,,,0.00,meteohub,2013-03-26 23:50:00,
2013-03-26 18:55:00,52.5,27.0,30.31,WNW,288,1.0,14.0,37,0.00,,,0.00,meteohub,2013-03-26 23:55:00,
2013-03-26 19:00:00,52.3,26.8,30.32,NNW,332,4.0,14.0,37,0.00,,,0.00,meteohub,2013-03-27 00:00:00,
2013-03-26 19:05:00,52.3,26.8,30.32,North,2,1.0,12.0,37,0.00,,,0.00,meteohub,2013-03-27 00:05:00,
2013-03-26 19:10:00,52.2,26.6,30.32,NNW,335,0.0,12.0,37,0.00,,,0.00,meteohub,2013-03-27 00:10:00,
2013-03-26 19:16:00,52.0,26.6,30.32,WNW,302,0.0,12.0,37,0.00,,,0.00,meteohub,2013-03-27 00:16:00,
2013-03-26 19:21:00,51.6,26.8,30.32,NW,313,0.0,12.0,38,0.00,,,0.00,meteohub,2013-03-27 00:21:00,
2013-03-26 19:26:00,51.4,26.6,30.33,NW,323,6.0,9.0,38,0.00,,,0.00,meteohub,2013-03-27 00:26:00,
2013-03-26 19:31:00,51.3,26.6,30.33,NNW,341,4.0,8.0,38,0.00,,,0.00,meteohub,2013-03-27 00:31:00,
2013-03-26 19:36:00,51.1,26.4,30.33,North,353,4.0,7.0,38,0.00,,,0.00,meteohub,2013-03-27 00:36:00,
2013-03-26 19:41:00,51.1,27.0,30.33,North,350,7.0,8.0,39,0.00,,,0.00,meteohub,2013-03-27 00:41:00,
2013-03-26 19:46:00,50.9,26.8,30.34,NNW,345,4.0,8.0,39,0.00,,,0.00,meteohub,2013-03-27 00:46:00,
2013-03-26 19:51:00,50.7,26.6,30.34,North,353,4.0,8.0,39,0.00,,,0.00,meteohub,2013-03-27 00:51:00,
2013-03-26 19:56:00,50.5,26.4,30.34,North,2,9.0,9.0,39,0.00,,,0.00,meteohub,2013-03-27 00:56:00,
2013-03-26 20:01:00,50.5,27.1,30.34,North,356,4.0,12.0,40,0.00,,,0.00,meteohub,2013-03-27 01:01:00,
2013-03-26 20:06:00,50.4,27.0,30.34,NE,46,6.0,12.0,40,0.00,,,0.00,meteohub,2013-03-27 01:06:00,
2013-03-26 20:11:00,50.4,27.0,30.34,North,10,5.0,12.0,40,0.00,,,0.00,meteohub,2013-03-27 01:11:00,
2013-03-26 20:16:00,50.2,26.8,30.34,NNW,338,6.0,11.0,40,0.00,,,0.00,meteohub,2013-03-27 01:16:00,
2013-03-26 20:21:00,50.0,26.6,30.34,NE,39,8.0,11.0,40,0.00,,,0.00,meteohub,2013-03-27 01:21:00,
2013-03-26 20:26:00,49.8,26.4,30.34,North,6,6.0,12.0,40,0.00,,,0.00,meteohub,2013-03-27 01:26:00,
2013-03-26 20:32:00,49.8,26.4,30.34,NNW,346,8.0,14.0,40,0.00,,,0.00,meteohub,2013-03-27 01:32:00,
2013-03-26 20:37:00,49.8,27.1,30.34,NNE,13,6.0,14.0,41,0.00,,,0.00,meteohub,2013-03-27 01:37:00,
2013-03-26 20:42:00,49.6,27.0,30.34,NNE,22,6.0,14.0,41,0.00,,,0.00,meteohub,2013-03-27 01:42:00,
2013-03-26 20:47:00,49.6,27.0,30.34,NE,36,6.0,12.0,41,0.00,,,0.00,meteohub,2013-03-27 01:47:00,
2013-03-26 20:52:00,49.5,27.3,30.35,North,5,4.0,11.0,42,0.00,,,0.00,meteohub,2013-03-27 01:52:00,
2013-03-26 20:57:00,49.6,27.5,30.35,North,4,8.0,11.0,42,0.00,,,0.00,meteohub,2013-03-27 01:57:00,
2013-03-26 21:02:00,49.6,27.5,30.35,North,359,5.0,11.0,42,0.00,,,0.00,meteohub,2013-03-27 02:02:00,
2013-03-26 21:07:00,49.6,28.0,30.35,NNE,21,4.0,11.0,43,0.00,,,0.00,meteohub,2013-03-27 02:07:00,
2013-03-26 21:12:00,49.6,28.0,30.35,North,1,4.0,10.0,43,0.00,,,0.00,meteohub,2013-03-27 02:12:00,
2013-03-26 21:17:00,49.5,27.9,30.35,NNE,20,3.0,10.0,43,0.00,,,0.00,meteohub,2013-03-27 02:17:00,
2013-03-26 21:22:00,49.5,27.9,30.35,North,11,5.0,10.0,43,0.00,,,0.00,meteohub,2013-03-27 02:22:00,
2013-03-26 21:27:00,49.3,28.2,30.35,NNE,13,5.0,10.0,44,0.00,,,0.00,meteohub,2013-03-27 02:27:00,
2013-03-26 21:32:00,49.1,29.1,30.35,NNE,29,4.0,10.0,46,0.00,,,0.00,meteohub,2013-03-27 02:32:00,
2013-03-26 21:37:00,48.9,29.1,30.35,NNE,21,2.0,10.0,46,0.00,,,0.00,meteohub,2013-03-27 02:37:00,
2013-03-26 21:42:00,48.9,29.1,30.36,NNE,25,4.0,7.0,46,0.00,,,0.00,meteohub,2013-03-27 02:42:00,
2013-03-26 21:47:00,48.7,29.5,30.36,NNE,19,5.0,6.0,47,0.00,,,0.00,meteohub,2013-03-27 02:47:00,
2013-03-26 21:52:00,48.7,29.8,30.36,NNE,20,3.0,5.0,48,0.00,,,0.00,meteohub,2013-03-27 02:52:00,
2013-03-26 21:57:00,48.7,29.5,30.36,NE,38,5.0,5.0,47,0.00,,,0.00,meteohub,2013-03-27 02:57:00,
2013-03-26 22:02:00,48.7,28.9,30.36,NNE,25,4.0,6.0,46,0.00,,,0.00,meteohub,2013-03-27 03:02:00,
2013-03-26 22:07:00,48.7,28.9,30.36,NE,34,5.0,7.0,46,0.00,,,0.00,meteohub,2013-03-27 03:07:00,
2013-03-26 22:12:00,48.7,28.4,30.36,NE,34,5.0,7.0,45,0.00,,,0.00,meteohub,2013-03-27 03:12:00,
2013-03-26 22:17:00,48.7,28.4,30.37,NE,38,4.0,7.0,45,0.00,,,0.00,meteohub,2013-03-27 03:17:00,
2013-03-26 22:22:00,48.7,28.4,30.37,NNE,29,2.0,7.0,45,0.00,,,0.00,meteohub,2013-03-27 03:22:00,
2013-03-26 22:27:00,48.6,28.2,30.37,NE,35,4.0,7.0,45,0.00,,,0.00,meteohub,2013-03-27 03:27:00,
2013-03-26 22:32:00,48.6,28.2,30.37,NNE,30,5.0,7.0,45,0.00,,,0.00,meteohub,2013-03-27 03:32:00,
2013-03-26 22:37:00,48.4,29.1,30.37,NNE,33,5.0,6.0,47,0.00,,,0.00,meteohub,2013-03-27 03:37:00,
2013-03-26 22:42:00,48.2,28.9,30.37,NE,52,13.0,13.0,47,0.00,,,0.00,meteohub,2013-03-27 03:42:00,
2013-03-26 22:47:00,48.0,28.8,30.37,ENE,59,9.0,13.0,47,0.00,,,0.00,meteohub,2013-03-27 03:47:00,
2013-03-26 22:53:00,47.7,28.9,30.37,NE,54,11.0,13.0,48,0.00,,,0.00,meteohub,2013-03-27 03:53:00,
2013-03-26 22:58:00,47.1,29.5,30.37,NE,53,9.0,13.0,50,0.00,,,0.00,meteohub,2013-03-27 03:58:00,
2013-03-26 23:00:00,46.9,29.3,30.37,NE,46,13.0,13.0,50,0.00,,,0.00,meteohub,2013-03-27 04:00:00,
2013-03-26 23:05:00,46.8,29.1,30.38,NE,55,14.0,15.0,50,0.00,,,0.00,meteohub,2013-03-27 04:05:00,
2013-03-26 23:10:00,46.6,29.5,30.37,NE,56,11.0,15.0,51,0.00,,,0.00,meteohub,2013-03-27 04:10:00,
2013-03-26 23:15:00,46.2,29.1,30.37,NE,52,13.0,14.0,51,0.00,,,0.00,meteohub,2013-03-27 04:15:00,
2013-03-26 23:20:00,46.0,29.5,30.37,NE,56,11.0,15.0,52,0.00,,,0.00,meteohub,2013-03-27 04:20:00,
2013-03-26 23:25:00,45.9,29.7,30.37,ENE,59,9.0,15.0,53,0.00,,,0.00,meteohub,2013-03-27 04:25:00,
2013-03-26 23:30:00,45.7,29.5,30.37,ENE,60,9.0,15.0,53,0.00,,,0.00,meteohub,2013-03-27 04:30:00,
2013-03-26 23:35:00,45.3,29.1,30.37,ENE,64,11.0,14.0,53,0.00,,,0.00,meteohub,2013-03-27 04:35:00,
2013-03-26 23:41:00,45.1,30.0,30.37,ENE,59,11.0,14.0,55,0.00,,,0.00,meteohub,2013-03-27 04:41:00,
2013-03-26 23:45:00,45.0,29.3,30.37,ENE,59,9.0,14.0,54,0.00,,,0.00,meteohub,2013-03-27 04:45:00,
2013-03-26 23:51:00,45.0,29.8,30.37,ENE,68,9.0,14.0,55,0.00,,,0.00,meteohub,2013-03-27 04:51:00,
2013-03-26 23:56:00,44.8,29.7,30.37,ENE,59,9.0,13.0,55,0.00,,,0.00,meteohub,2013-03-27 04:56:00,